sat.trackr.live / text

‹ back to catalog

STARLINK-4257

NORAD 53184 · 2022-083BE

PAYLOAD ACTIVE UNKNOWN

§ Identity

Operator
Country
US
Launch date
2022-07-17
Launch site
AFETR
Launch vehicle
Mass (kg)
RCS (m²)

Purposes: comms

External: N2YO · Heavens-Above · Gunter

§ Orbital elements

Epoch: 2026-05-24T23:31:47.988192Z

Period
95.44 min
Inclination
53.2139°
Eccentricity
0.0001265
Mean motion
15.08840621 rev/d
Perigee alt
538.9 km
Apogee alt
540.6 km
Semi-major
6,917.9 km
B*
4.4488e-5
RAAN
141.2227°
Arg perigee
76.0174°
Mean anomaly
284.0959°
Rev number
21,344

§ Raw data

STARLINK-42571 53184U 22083BE  26144.98041653  .00000420  00000+0  44488-4 0  99962 53184  53.2139 141.2227 0001265  76.0174 284.0959 15.08840621213440

JSON: /api/v1/satellites/53184 · /tle

For live sub-satellite position, see the globe view (requires WebGL).

§ Visibility from observer

Set your observer location to see the next 7 days of passes ≥ 10°. The values pass through the URL so the page stays shareable.

No JS? Fill the form by hand. The geolocation button needs JavaScript.